UWE-3

导读

UWE-3是德国(DE)于2013年11月21日08:00发射的一颗技术试验微小卫星,由维尔茨堡大学开发,属于UWE系列卫星的第三颗任务星。该卫星主要开展空间网络通信、分布式卫星系统协同等相关技术试验,验证微小卫星平台的先进通信与自主运行技术,为后续德国微小卫星组网技术发展积累在轨试验数据,推动了欧洲低成本微小卫星技术的进步。

Basic Information
目录编号:
39446
目录名称:
UWE-3
国际标识:
2013-066AG
轨道中心:
EARTH
卫星名称:
UWE-3
卫星全名:
--
卫星状态:
在轨 (已飞行4678 天)
发射日期:
2013-11-21 UTC
国别 :
德国 (DE)
星等 :
--
This satellite is enrolled in the Space Conjunction Data Service (SCDS) and the current flight risk assessment level is: No High Risk
Orbit Information
数据来源 国际轨道数据
星历时间: 2026-09-12T03:49:52+0800
20小时前
查看轨道信息
半长轴: 6952.671km
偏心率: 0.004931
轨道倾角: 97.879°
近地点辐角 32.669°
升交点赤经 211.551°
平近点角 327.756°
近地点: 540.25km
远地点: 608.818km
周期: 96.158分钟
每日圈数: 14.975292
Detailed Information
使用方式:
暂无
2D Orbit Map
3D Orbit Map
Orbit Altitude Analysis Chart
Orbit Inclination Analysis Chart
Orbit Comprehensive Analysis Chart
View Comprehensive Chart
Conjunction Data List
Event ID Objects TCA Miss Dist (km) Collision Risk Probability Collision Risk Index (CRI) Action
CDM_260912-130503-944606-290322
UWE-3 (39446)
2026-09-12T
13:05:11+0000
1.464 km
极远距离
6.958581E-6 低风险 0.52
CDM_260913-080402-761203-944627
UWE-3 (39446)
2026-09-13T
08:04:31+0000
2.320 km
极远距离
2.027324E-6 低风险 0.41
CDM_260914-153903-944605-542521
UWE-3 (39446)
2026-09-14T
15:39:42+0000
2.446 km
极远距离
1.673026E-6 低风险 0.39
Miss Distance Evolution Trend with All Objects
Collision Probability Evolution Trend with All Objects